Location: Unspecified
(40.7945°N, 0.0000°E)
Time: 20:39:01
(UTC+00:00)

Explorer 7 - Pass Details

Date: 18 June 2021
Orbit: 484 x 676 km, 50.3° (Epoch: 30 July)

Event Time Altitude Azimuth Distance (km) Brightness Sun altitude
Rises 03:06:47 0° 304° (NW) 2,925 10.4 -12.7°
Reaches altitude 10° 03:09:12 10° 307° (NW) 1,986 9.6 -12.4°
Maximum altitude 03:13:44 67° 30° (NNE) 643 7.4 -11.8°
Drops below altitude 10° 03:17:57 10° 114° (ESE) 1,854 9.8 -11.2°
Sets 03:20:08 0° 117° (ESE) 2,714 10.6 -10.9°
